カタログに戻る

COSMOS 252 DEB *

運用中LEO
NORAD 3690·DEBRIS·🇷🇺 Russia

打ち上げ Nov 1, 1968 から Baikonur Cosmodrome

Loading…

次のパス (今後24時間)

TLE

最新Source: Space-Track

元期: Sep 14, 2026, 03:29 UTC

1 03690U 68097AH  26257.14543742 -.00000046  00000-0  39133-4 0  9994
2 03690  62.3507 169.6438 0760587 275.4837  75.9938 12.90727612683655

AllMySatでCOSMOS 252 DEB *をリアルタイム追跡

Download on the App Store